WA2GUG Weather Reports


time (UTC)temp
C
wind
direction
speed
KPH
gust
KPH
rain 1hr
cm
rain 24hr
cm
rain mn
cm
humidity
%
barometer
mb
20260831024656 18 160 1.6 6.4 0.00 0.00 0.00 99 1012.2
20260831024156 18 43 0.0 4.8 0.00 0.00 0.00 99 1013.0
20260831023656 18 83 0.0 4.8 0.00 0.00 0.00 99 1012.2
20260831023156 18 71 0.0 3.2 0.00 0.00 0.00 99 1013.0
20260831022656 19 47 0.0 4.8 0.00 0.00 0.00 99 1013.0
20260831022156 19 97 1.6 4.8 0.00 0.00 0.00 99 1013.0
20260831021656 19 46 0.0 0.0 0.00 0.00 0.00 99 1013.0
20260831021156 19 153 0.0 4.8 0.00 0.00 0.00 99 1013.0
20260831020656 19 95 0.0 4.8 0.00 0.00 0.00 99 1013.0
20260831020156 19 136 0.0 4.8 0.00 0.00 0.00 99 1013.0
20260831015656 19 112 0.0 3.2 0.00 0.00 0.00 99 1013.0
20260831015156 19 138 0.0 3.2 0.00 0.00 0.00 99 1013.0
20260831014656 19 168 0.0 1.6 0.00 0.00 0.00 99 1013.0
20260831014156 19 127 0.0 1.6 0.00 0.00 0.00 99 1013.0
20260831013656 19 10 0.0 6.4 0.00 0.00 0.00 99 1013.0
20260831013156 19 150 0.0 6.4 0.00 0.00 0.00 99 1013.0
20260831012656 19 49 0.0 0.0 0.00 0.00 0.00 99 1013.0
20260831012156 19 161 0.0 0.0 0.00 0.00 0.00 99 1013.0
20260831011656 19 76 0.0 1.6 0.00 0.00 0.00 99 1013.0
20260831011156 19 137 0.0 6.4 0.00 0.00 0.00 99 1013.0
20260831010656 19 117 0.0 6.4 0.00 0.00 0.00 99 1013.0
20260831010156 19 345 0.0 0.0 0.00 0.00 0.00 99 1013.0
20260831005656 19 16 0.0 0.0 0.00 0.00 0.00 99 1012.2
20260831005156 19 87 0.0 0.0 0.00 0.00 0.00 99 1013.0
20260831004656 19 137 0.0 0.0 0.00 0.00 0.00 99 1013.0
20260831004156 19 135 0.0 0.0 0.00 0.00 0.00 99 1013.0
20260831003656 19 119 0.0 0.0 0.00 0.00 0.00 99 1013.0
20260831003156 19 117 0.0 3.2 0.00 0.00 0.00 99 1013.0
20260831002656 19 94 0.0 3.2 0.00 0.00 0.00 99 1012.1
20260831002156 19 143 0.0 1.6 0.00 0.00 0.00 99 1012.0
20260831001656 19 128 0.0 0.0 0.00 0.00 0.00 99 1012.0
20260831001156 18 122 0.0 0.0 0.00 0.00 0.00 99 1012.0
20260831000656 18 148 0.0 0.0 0.00 0.00 0.00 99 1012.0
20260831000156 18 139 0.0 0.0 0.00 0.00 0.00 99 1012.0
20260830235656 18 85 0.0 0.0 0.00 0.00 0.00 99 1012.0
20260830235156 19 107 0.0 0.0 0.00 0.00 0.00 99 1012.0
20260830234656 19 19 0.0 0.0 0.00 0.00 0.00 99 1012.0
20260830234156 19 52 0.0 0.0 0.00 0.00 0.00 99 1012.0
20260830233656 19 147 0.0 0.0 0.00 0.00 0.00 99 1012.0
20260830233156 19 135 0.0 0.0 0.00 0.00 0.00 99 1012.0
20260830232656 19 183 0.0 0.0 0.00 0.00 0.00 99 1012.0
20260830232156 19 128 0.0 0.0 0.00 0.00 0.00 99 1012.0
20260830231656 20 139 0.0 0.0 0.00 0.00 0.00 99 1012.0
20260830231156 20 159 0.0 1.6 0.00 0.00 0.00 99 1012.0
20260830230656 20 11 0.0 1.6 0.00 0.00 0.00 99 1012.0
20260830230156 20 152 0.0 3.2 0.00 0.00 0.00 99 1012.0
20260830225656 20 107 0.0 3.2 0.00 0.00 0.00 99 1012.0
20260830225156 20 164 0.0 3.2 0.00 0.00 0.00 99 1012.0
20260830224656 20 131 0.0 4.8 0.00 0.00 0.00 99 1012.0
20260830224156 21 86 0.0 8.0 0.00 0.00 0.00 99 1012.0
20260830223156 21 99 3.2 8.0 0.00 0.00 0.00 99 1012.0
20260830222656 21 62 0.0 3.2 0.00 0.00 0.00 99 1012.0
20260830222156 21 57 0.0 1.6 0.00 0.00 0.00 99 1012.0
20260830221656 22 115 0.0 0.0 0.00 0.00 0.00 99 1012.0
20260830221156 22 108 0.0 0.0 0.00 0.00 0.00 99 1012.0
20260830220656 22 135 0.0 0.0 0.00 0.00 0.00 99 1012.0
20260830220156 22 135 0.0 0.0 0.00 0.00 0.00 99 1012.0
20260830215656 22 123 0.0 0.0 0.00 0.00 0.00 99 1011.2
20260830215156 22 137 0.0 0.0 0.00 0.00 0.00 99 1011.2
20260830214656 22 104 0.0 0.0 0.00 0.00 0.00 99 1011.2
20260830214156 22 39 0.0 0.0 0.00 0.00 0.00 99 1011.2
20260830213656 23 10 0.0 0.0 0.00 0.00 0.00 99 1012.0
20260830213156 23 126 0.0 0.0 0.00 0.00 0.00 99 1011.2
20260830212656 23 146 0.0 0.0 0.00 0.00 0.00 99 1011.2
20260830212156 23 157 0.0 0.0 0.00 0.00 0.00 99 1011.2
20260830211656 23 137 0.0 0.0 0.00 0.00 0.00 99 1012.0
20260830211156 23 171 0.0 0.0 0.00 0.00 0.00 99 1011.2
20260830210656 23 177 0.0 0.0 0.00 0.00 0.00 99 1012.0
20260830210156 23 184 0.0 0.0 0.00 0.00 0.00 99 1011.2
20260830205656 23 202 0.0 0.0 0.00 0.00 0.00 99 1012.0
20260830205156 23 180 0.0 0.0 0.00 0.00 0.00 99 1011.2
20260830204656 23 180 0.0 0.0 0.00 0.00 0.00 99 1011.2
20260830204156 24 189 0.0 0.0 0.00 0.00 0.00 99 1011.2
20260830203656 24 228 0.0 0.0 0.00 0.00 0.00 99 1011.2
20260830203156 25 231 0.0 0.0 0.00 0.00 0.00 99 1011.2
20260830202656 25 256 0.0 0.0 0.00 0.00 0.00 99 1011.2
20260830202156 25 225 0.0 0.0 0.00 0.00 0.00 99 1011.2
20260830201656 25 225 0.0 0.0 0.00 0.00 0.00 99 1012.0
20260830201156 25 235 0.0 0.0 0.00 0.00 0.00 99 1012.0
20260830200656 25 243 0.0 0.0 0.00 0.00 0.00 99 1012.0
20260830200156 25 262 0.0 0.0 0.00 0.00 0.00 99 1012.0
20260830195656 26 264 0.0 0.0 0.00 0.00 0.00 99 1012.0
20260830195156 26 186 0.0 0.0 0.00 0.00 0.00 99 1012.0
20260830194656 26 249 0.0 0.0 0.00 0.00 0.00 99 1012.0
20260830194156 26 305 0.0 0.0 0.00 0.00 0.00 99 1012.0
20260830193656 26 280 0.0 0.0 0.00 0.00 0.00 99 1012.0
20260830193156 26 304 0.0 0.0 0.00 0.00 0.00 99 1012.0
20260830192656 26 286 0.0 0.0 0.00 0.00 0.00 99 1012.0
20260830192156 26 291 0.0 0.0 0.00 0.00 0.00 99 1012.0
20260830191656 27 295 0.0 0.0 0.00 0.00 0.00 99 1012.0
20260830191156 28 265 0.0 0.0 0.00 0.00 0.00 99 1012.0
20260830190656 28 264 0.0 1.6 0.00 0.00 0.00 99 1012.0
20260830190156 28 230 0.0 1.6 0.00 0.00 0.00 99 1012.0
20260830185656 28 263 0.0 1.6 0.00 0.00 0.00 99 1012.0
20260830185156 28 287 0.0 0.0 0.00 0.00 0.00 99 1012.0
20260830184656 28 263 0.0 3.2 0.00 0.00 0.00 99 1012.0
20260830184156 28 190 0.0 4.8 0.00 0.00 0.00 99 1012.0
20260830183656 28 243 0.0 4.8 0.00 0.00 0.00 99 1012.1
20260830183156 27 226 0.0 0.0 0.00 0.00 0.00 99 1012.2
20260830182656 27 261 0.0 0.0 0.00 0.00 0.00 99 1012.2
20260830182156 28 237 0.0 0.0 0.00 0.00 0.00 99 1012.2
20260830181656 28 163 0.0 4.8 0.00 0.00 0.00 99 1013.0
20260830181156 29 137 1.6 4.8 0.00 0.00 0.00 99 1012.2
20260830180656 29 253 0.0 0.0 0.00 0.00 0.00 99 1012.2
20260830180156 29 252 0.0 0.0 0.00 0.00 0.00 99 1012.2
20260830175656 29 207 0.0 0.0 0.00 0.00 0.00 99 1012.2
20260830175156 30 267 0.0 1.6 0.00 0.00 0.00 99 1012.2
20260830174656 30 300 0.0 1.6 0.00 0.00 0.00 99 1013.0
20260830174156 31 275 0.0 4.8 0.00 0.00 0.00 99 1012.2
20260830173656 31 260 0.0 4.8 0.00 0.00 0.00 99 1012.2
20260830173156 31 283 0.0 3.2 0.00 0.00 0.00 99 1013.0
20260830172656 31 258 0.0 0.0 0.00 0.00 0.00 99 1013.0
20260830172156 31 259 0.0 0.0 0.00 0.00 0.00 99 1013.0
20260830171656 32 257 0.0 0.0 0.00 0.00 0.00 99 1012.2
20260830171156 31 230 0.0 0.0 0.00 0.00 0.00 99 1012.2
20260830170656 31 268 0.0 0.0 0.00 0.00 0.00 99 1013.0
20260830170156 29 272 0.0 0.0 0.00 0.00 0.00 99 1012.2
20260830165656 28 280 0.0 0.0 0.00 0.00 0.00 99 1013.0
20260830165156 28 235 0.0 0.0 0.00 0.00 0.00 99 1012.2
20260830164656 28 266 0.0 0.0 0.00 0.00 0.00 99 1013.0
20260830164156 27 180 0.0 0.0 0.00 0.00 0.00 99 1013.0
20260830163656 26 285 0.0 0.0 0.00 0.00 0.00 99 1012.2
20260830163156 26 274 0.0 0.0 0.00 0.00 0.00 99 1013.0
20260830162656 26 230 0.0 0.0 0.00 0.00 0.00 99 1013.0
20260830162156 26 274 0.0 0.0 0.00 0.00 0.00 99 1013.0
20260830161656 26 268 0.0 0.0 0.00 0.00 0.00 99 1013.0
20260830161156 26 267 0.0 0.0 0.00 0.00 0.00 99 1013.0
20260830160656 26 258 0.0 0.0 0.00 0.00 0.00 99 1013.0
20260830160156 26 162 0.0 0.0 0.00 0.00 0.00 99 1013.0
20260830155656 26 167 0.0 0.0 0.00 0.00 0.00 99 1013.0
20260830155156 26 189 0.0 0.0 0.00 0.00 0.00 99 1013.0
20260830154655 25 192 0.0 0.0 0.00 0.00 0.00 99 1013.0
20260830154156 25 258 0.0 0.0 0.00 0.00 0.00 99 1013.1
20260830153655 25 327 0.0 0.0 0.00 0.00 0.00 99 1013.2
20260830153155 25 148 0.0 0.0 0.00 0.00 0.00 99 1013.2
20260830152655 25 271 0.0 0.0 0.00 0.00 0.00 99 1013.2
20260830152155 25 167 0.0 0.0 0.00 0.00 0.00 99 1013.2
20260830151656 25 159 0.0 0.0 0.00 0.00 0.00 99 1013.2
20260830151155 25 291 0.0 0.0 0.00 0.00 0.00 99 1014.0
20260830150655 25 309 0.0 0.0 0.00 0.00 0.00 99 1013.2
20260830150155 25 272 0.0 0.0 0.00 0.00 0.00 99 1013.2
20260830145655 25 279 0.0 0.0 0.00 0.00 0.00 99 1014.0
20260830145155 25 266 0.0 0.0 0.00 0.00 0.00 99 1014.0
20260830144655 26 245 0.0 0.0 0.00 0.00 0.00 99 1014.0
20260830144155 26 266 0.0 0.0 0.00 0.00 0.00 99 1013.2
20260830143655 27 266 0.0 0.0 0.00 0.00 0.00 99 1014.0
20260830143155 27 250 0.0 0.0 0.00 0.00 0.00 99 1014.0
20260830142655 26 282 0.0 0.0 0.00 0.00 0.00 99 1013.2
20260830142155 25 244 0.0 0.0 0.00 0.00 0.00 99 1013.2
20260830141656 25 253 0.0 0.0 0.00 0.00 0.00 99 1013.2
20260830141155 23 279 0.0 0.0 0.00 0.00 0.00 99 1014.0
20260830140655 23 216 0.0 0.0 0.00 0.00 0.00 99 1014.0
20260830140155 23 287 0.0 0.0 0.00 0.00 0.00 99 1014.0
20260830135655 24 268 0.0 0.0 0.00 0.00 0.00 99 1014.0
20260830135155 24 259 0.0 0.0 0.00 0.00 0.00 99 1014.0
20260830134655 24 262 0.0 0.0 0.00 0.00 0.00 99 1013.2
20260830134155 23 268 0.0 0.0 0.00 0.00 0.00 99 1014.0
20260830133655 22 270 0.0 0.0 0.00 0.00 0.00 99 1014.0
20260830133155 21 251 0.0 0.0 0.00 0.00 0.00 99 1014.0
20260830132655 20 110 0.0 0.0 0.00 0.00 0.00 99 1014.0
20260830132155 20 227 0.0 0.0 0.00 0.00 0.00 99 1014.0
20260830131655 20 260 0.0 0.0 0.00 0.00 0.00 99 1014.0
20260830131155 19 273 0.0 0.0 0.00 0.00 0.00 99 1014.0
20260830130655 19 265 0.0 0.0 0.00 0.00 0.00 99 1014.0
20260830130155 19 268 0.0 0.0 0.00 0.00 0.00 99 1014.0
20260830125655 19 301 0.0 0.0 0.00 0.00 0.00 99 1014.0
20260830125155 18 118 0.0 0.0 0.00 0.00 0.00 99 1014.0
20260830124655 17 305 0.0 0.0 0.00 0.00 0.00 99 1014.0
20260830124155 16 295 0.0 0.0 0.00 0.00 0.00 99 1014.0
20260830123655 15 286 0.0 0.0 0.00 0.00 0.00 99 1014.0
20260830123155 15 148 0.0 0.0 0.00 0.00 0.00 99 1014.0
20260830122655 15 292 0.0 0.0 0.00 0.00 0.00 99 1014.0
20260830122155 15 186 0.0 0.0 0.00 0.00 0.00 99 1014.0
20260830121655 15 173 0.0 0.0 0.00 0.00 0.00 99 1014.0
20260830121155 14 135 0.0 0.0 0.00 0.00 0.00 99 1014.0
20260830120655 14 253 0.0 0.0 0.00 0.00 0.00 99 1014.0
20260830120155 14 264 0.0 0.0 0.00 0.00 0.00 99 1014.0
20260830115655 13 276 0.0 0.0 0.00 0.00 0.00 99 1014.0
20260830115155 13 141 0.0 0.0 0.00 0.00 0.00 99 1014.0
20260830114655 13 255 0.0 0.0 0.00 0.00 0.00 99 1014.0
20260830114155 13 223 0.0 0.0 0.00 0.00 0.00 99 1014.0
20260830113655 13 291 0.0 0.0 0.00 0.00 0.00 99 1014.0
20260830113155 13 125 0.0 0.0 0.00 0.00 0.00 99 1014.0
20260830112655 13 107 0.0 0.0 0.00 0.00 0.00 99 1014.1
20260830112155 13 278 0.0 0.0 0.00 0.00 0.00 99 1014.0
20260830111655 13 287 0.0 0.0 0.00 0.00 0.00 99 1014.0
20260830111155 13 140 0.0 0.0 0.00 0.00 0.00 99 1014.0
20260830110655 12 162 0.0 0.0 0.00 0.00 0.00 99 1014.0
20260830110155 12 246 0.0 0.0 0.00 0.00 0.00 99 1014.1
20260830105655 12 232 0.0 0.0 0.00 0.00 0.00 99 1014.0
20260830105155 12 177 0.0 0.0 0.00 0.00 0.00 99 1014.0
20260830104655 12 171 0.0 0.0 0.00 0.00 0.00 99 1014.0
20260830104155 12 141 0.0 0.0 0.00 0.00 0.00 99 1014.0
20260830103655 12 132 0.0 0.0 0.00 0.00 0.00 99 1014.0
20260830103155 12 36 0.0 0.0 0.00 0.00 0.00 99 1014.0
20260830102655 12 177 0.0 0.0 0.00 0.00 0.00 99 1014.0
20260830102155 12 223 0.0 0.0 0.00 0.00 0.00 99 1014.0
20260830101655 12 27 0.0 0.0 0.00 0.00 0.00 99 1014.0
20260830101155 12 138 0.0 0.0 0.00 0.00 0.00 99 1014.0
20260830100655 12 141 0.0 0.0 0.00 0.00 0.00 99 1014.0
20260830100155 12 133 0.0 0.0 0.00 0.00 0.00 99 1014.0
20260830095655 12 159 0.0 0.0 0.00 0.00 0.00 99 1014.0
20260830095155 12 285 0.0 0.0 0.00 0.00 0.00 99 1014.0
20260830094655 12 175 0.0 0.0 0.00 0.00 0.00 99 1014.0
20260830094155 12 98 0.0 0.0 0.00 0.00 0.00 99 1014.0
20260830093655 12 253 0.0 0.0 0.00 0.00 0.00 99 1014.0
20260830093155 12 275 0.0 0.0 0.00 0.00 0.00 99 1014.0
20260830092655 12 129 0.0 0.0 0.00 0.00 0.00 99 1014.0
20260830092155 12 110 0.0 0.0 0.00 0.00 0.00 99 1014.0
20260830091655 12 103 0.0 0.0 0.00 0.00 0.00 99 1014.0
20260830091155 12 204 0.0 0.0 0.00 0.00 0.00 99 1014.0
20260830090655 12 108 0.0 0.0 0.00 0.00 0.00 99 1014.0
20260830090155 12 173 0.0 0.0 0.00 0.00 0.00 99 1014.0
20260830085655 12 211 0.0 0.0 0.00 0.00 0.00 99 1014.0
20260830085155 12 115 0.0 0.0 0.00 0.00 0.00 99 1014.0
20260830084655 12 157 0.0 0.0 0.00 0.00 0.00 99 1014.1
20260830084155 12 162 0.0 0.0 0.00 0.00 0.00 99 1014.1
20260830083655 12 174 0.0 0.0 0.00 0.00 0.00 99 1014.2
20260830083155 12 261 0.0 0.0 0.00 0.00 0.00 99 1015.0
20260830082655 12 136 0.0 0.0 0.00 0.00 0.00 99 1015.0
20260830082155 12 97 0.0 0.0 0.00 0.00 0.00 99 1014.2
20260830081655 12 349 0.0 0.0 0.00 0.00 0.00 99 1014.2
20260830081155 12 145 0.0 0.0 0.00 0.00 0.00 99 1014.2
20260830080655 12 186 0.0 0.0 0.00 0.00 0.00 99 1015.0
20260830080155 12 150 0.0 0.0 0.00 0.00 0.00 99 1015.0
20260830075655 12 250 0.0 0.0 0.00 0.00 0.00 99 1014.1
20260830075155 12 288 0.0 0.0 0.00 0.00 0.00 99 1015.0
20260830074655 12 214 0.0 0.0 0.00 0.00 0.00 99 1014.2
20260830074155 12 134 0.0 0.0 0.00 0.00 0.00 99 1014.1
20260830073655 12 169 0.0 0.0 0.00 0.00 0.00 99 1014.1
20260830073155 12 169 0.0 0.0 0.00 0.00 0.00 99 1014.0
20260830072655 12 117 0.0 0.0 0.00 0.00 0.00 99 1014.0
20260830072155 12 259 0.0 0.0 0.00 0.00 0.00 99 1014.1
20260830071655 12 169 0.0 0.0 0.00 0.00 0.00 99 1014.1
20260830071155 12 308 0.0 0.0 0.00 0.00 0.00 99 1015.0
20260830070655 12 163 0.0 0.0 0.00 0.00 0.00 99 1015.0
20260830070155 12 132 0.0 0.0 0.00 0.00 0.00 99 1015.0
20260830065655 12 265 0.0 0.0 0.00 0.00 0.00 99 1014.1
20260830065155 12 135 0.0 0.0 0.00 0.00 0.00 99 1014.1
20260830064655 12 176 0.0 0.0 0.00 0.00 0.00 99 1014.1
20260830064155 12 185 0.0 0.0 0.00 0.00 0.00 99 1014.0
20260830063655 12 6 0.0 0.0 0.00 0.00 0.00 99 1014.0
20260830063155 12 243 0.0 0.0 0.00 0.00 0.00 99 1014.0
20260830062655 12 188 0.0 0.0 0.00 0.00 0.00 99 1014.1
20260830062155 12 267 0.0 0.0 0.00 0.00 0.00 99 1014.2
20260830061655 12 278 0.0 0.0 0.00 0.00 0.00 99 1015.0
20260830061155 12 110 0.0 0.0 0.00 0.00 0.00 99 1015.0
20260830060655 12 35 0.0 0.0 0.00 0.00 0.00 99 1015.0
20260830060155 12 101 0.0 0.0 0.00 0.00 0.00 99 1015.0
20260830055655 12 275 0.0 0.0 0.00 0.00 0.00 99 1015.0
20260830055155 12 156 0.0 0.0 0.00 0.00 0.00 99 1015.0
20260830054655 12 107 0.0 0.0 0.00 0.00 0.00 99 1015.0
20260830054155 12 305 0.0 0.0 0.00 0.00 0.00 99 1015.0
20260830053655 12 103 0.0 0.0 0.00 0.00 0.00 99 1015.0
20260830053155 12 161 0.0 0.0 0.00 0.00 0.00 99 1015.0
20260830052655 12 69 0.0 0.0 0.00 0.00 0.00 99 1015.0
20260830052155 12 93 0.0 0.0 0.00 0.00 0.00 99 1015.0
20260830051655 12 116 0.0 0.0 0.00 0.00 0.00 99 1015.0
20260830051155 12 108 0.0 0.0 0.00 0.00 0.00 99 1015.0
20260830050655 12 125 0.0 0.0 0.00 0.00 0.00 99 1015.0
20260830050155 12 181 0.0 0.0 0.00 0.00 0.00 99 1015.0
20260830045655 12 161 0.0 0.0 0.00 0.00 0.00 99 1014.2
20260830045155 12 29 0.0 0.0 0.00 0.00 0.00 99 1015.0
20260830044655 12 202 0.0 0.0 0.00 0.00 0.00 99 1014.2
20260830044155 12 135 0.0 0.0 0.00 0.00 0.00 99 1014.2
20260830043655 12 358 0.0 3.2 0.00 0.00 0.00 99 1015.0
20260830043155 12 143 0.0 3.2 0.00 0.00 0.00 99 1015.0
20260830042655 12 161 0.0 0.0 0.00 0.00 0.00 99 1015.0
20260830042155 12 225 0.0 0.0 0.00 0.00 0.00 99 1015.0
20260830041655 12 232 0.0 0.0 0.00 0.00 0.00 99 1015.0
20260830041155 12 303 0.0 0.0 0.00 0.00 0.00 99 1015.0
20260830040655 12 150 0.0 0.0 0.00 0.00 0.00 99 1015.0
20260830040155 12 135 0.0 0.0 0.00 0.00 0.00 99 1015.0
20260830035655 12 92 0.0 0.0 0.00 0.00 0.00 99 1015.0
20260830035155 12 36 0.0 0.0 0.00 0.00 0.00 99 1015.0
20260830034655 12 128 0.0 0.0 0.00 0.00 0.00 99 1015.0
20260830034155 12 0 0.0 0.0 0.00 0.00 0.00 99 1015.0
20260830033655 12 7 0.0 0.0 0.00 0.00 0.00 99 1015.0
20260830033155 12 46 0.0 0.0 0.00 0.00 0.00 99 1015.0
20260830032655 12 93 0.0 0.0 0.00 0.00 0.00 99 1015.0
20260830032155 13 121 0.0 0.0 0.00 0.00 0.00 99 1015.0
20260830031655 13 26 0.0 0.0 0.00 0.00 0.00 99 1015.0
20260830031155 13 117 0.0 0.0 0.00 0.00 0.00 99 1015.0
20260830030655 13 104 0.0 0.0 0.00 0.00 0.00 99 1015.0
20260830030155 13 147 0.0 0.0 0.00 0.00 0.00 99 1015.0
20260830025655 13 157 0.0 0.0 0.00 0.00 0.00 99 1015.0
20260830025155 13 175 0.0 0.0 0.00 0.00 0.00 99 1015.0